Wind_Speed
13 12 12 11 11 11 12 11 11 12 12 12 13 14 14 14 14 13 12 11 11 11 10 10 9 9 9 10 11 13 14 14 15 14 18 17 11 11 14 11 7 7 9 7 6 8 10 12 13 13 13 13 13 15 15 14 14 10 6 6 7 7 9 11 7 2 2 7 4 3 8 7 9 11 8 4 5 9 12 10 15 20 23 24 25 24 22 19
13 13 13 12 12 11 11 11 12 13 13 14 15 16 16 15 15 14 13 12 11 10 10 9 9 9 9 9 10 11 13 14 15 19 22 18 12 15 17 16 12 9 10 10 8 10 13 12 13 13 14 14 14 15 14 14 14 10 6 6 8 9 12 7 3 7 6 6 5 3 4 4 8 11 9 8 9 10 10 10 16 23 24 21 21 20 19 17
13 13 13 12 12 12 12 11 11 12 13 14 15 16 16 16 15 14 14 12 11 10 10 9 9 8 8 9 8 10 11 12 17 22 23 19 17 18 16 15 14 12 11 11 10 12 13 12 12 13 15 14 14 15 13 13 12 12 9 7 9 11 13 2 8 9 9 5 4 4 5 2 5 9 11 12 9 9 9 11 15 22 24 20 20 18 17 15
13 13 13 12 12 12 13 13 12 12 13 13 14 14 14 14 15 14 13 12 10 10 10 9 8 8 8 7 7 7 7 12 15 17 18 18 18 18 17 16 15 14 12 12 11 12 13 13 13 13 15 12 14 14 11 11 10 11 10 9 11 6 10 2 6 2 5 4 4 5 6 5 4 4 10 13 9 8 9 12 15 21 24 22 21 17 15 14
13 13 13 12 12 12 12 13 13 13 14 14 14 14 13 13 13 13 12 11 10 10 10 9 8 7 8 6 6 4 3 6 5 9 12 14 14 15 17 17 16 16 14 14 12 13 15 15 14 14 14 11 13 12 10 14 11 10 10 15 17 9 10 4 4 4 4 0 2 3 5 7 7 4 8 9 5 1 2 10 17 24 24 21 20 17 15 13
14 14 13 13 12 12 12 13 13 13 14 14 14 12 11 11 11 12 12 12 10 10 9 8 7 7 7 6 5 4 5 3 4 5 7 7 10 13 16 17 17 17 16 16 13 15 16 17 15 14 14 11 12 11 10 15 13 9 9 16 19 12 9 5 4 5 5 4 6 3 2 4 7 6 10 7 6 14 16 14 21 25 23 21 19 16 15 13
15 14 14 13 13 13 13 13 13 14 14 14 13 12 10 10 11 11 12 11 10 9 9 8 7 7 7 6 6 6 12 11 3 5 5 4 9 12 14 16 18 18 19 19 16 17 17 17 17 15 13 10 12 12 12 14 15 11 9 13 14 10 9 6 2 4 4 11 8 3 2 4 9 8 13 8 11 18 22 23 25 24 21 21 19 15 14 12
16 15 15 14 14 14 14 14 14 15 15 14 12 11 10 10 11 11 12 12 10 9 9 8 7 8 7 8 6 8 17 20 12 11 11 10 10 11 13 14 17 20 22 22 19 19 18 18 19 16 12 10 12 12 12 13 13 13 11 13 11 10 12 8 3 2 7 12 6 4 4 10 10 6 14 10 9 13 18 23 24 23 21 21 20 16 14 12
16 16 15 15 15 16 15 15 15 16 16 13 12 11 11 11 11 12 13 12 10 9 9 8 8 9 8 8 5 9 16 18 13 11 10 8 8 11 12 10 15 21 23 22 20 20 19 19 20 18 13 13 14 12 12 11 9 13 14 15 12 8 12 11 6 4 8 10 9 7 8 12 9 5 11 10 9 11 14 19 23 24 22 21 19 16 15 13
17 17 16 15 16 17 16 15 16 17 16 13 12 12 11 12 12 13 13 12 10 10 9 8 9 10 9 5 6 9 10 10 10 9 6 5 7 10 10 9 12 18 22 21 21 22 21 19 19 19 16 14 13 12 11 11 9 11 14 17 15 9 10 11 9 9 10 10 12 10 10 10 10 8 8 12 11 11 10 14 24 25 22 22 18 14 13 11
17 17 17 17 16 17 17 15 15 17 16 13 13 12 11 11 12 14 14 13 11 10 10 8 9 12 11 5 11 10 6 6 8 8 8 8 10 10 10 11 12 15 20 21 21 22 22 19 17 17 14 12 12 13 12 14 13 8 9 13 16 13 11 12 11 13 12 11 14 13 12 10 10 11 9 15 16 13 11 14 26 26 25 24 19 15 12 11
17 17 17 18 16 16 17 16 15 16 15 13 13 12 12 12 12 13 14 13 11 11 10 9 10 13 8 9 19 16 8 6 5 5 8 10 12 11 11 12 13 15 17 20 21 21 22 20 19 17 13 11 10 10 10 15 17 11 9 9 12 13 12 12 12 15 14 10 14 14 13 10 11 14 9 15 18 16 14 21 32 28 27 26 21 18 13 10
17 17 17 18 17 16 16 15 14 14 13 13 13 13 13 13 13 13 14 13 11 11 10 9 11 11 6 13 22 23 12 6 6 6 6 8 11 11 12 13 13 14 16 19 20 19 21 20 20 20 18 13 10 8 6 11 16 13 10 7 8 10 10 12 11 15 15 11 15 14 9 8 12 15 8 13 14 14 14 23 32 27 27 25 22 21 15 11
17 17 17 17 17 16 15 14 14 14 13 13 13 14 14 14 14 14 14 13 11 11 10 8 10 9 8 15 21 25 21 13 12 14 11 9 11 11 13 13 13 14 15 18 19 18 20 19 20 20 19 16 13 11 7 9 12 10 10 7 7 8 8 14 13 14 13 12 18 15 7 7 12 15 16 13 13 12 10 19 28 26 25 23 22 21 17 13
18 17 17 17 17 16 15 14 14 14 14 14 14 15 15 15 15 14 14 13 11 11 7 6 9 7 10 18 19 19 24 24 21 18 16 14 14 13 13 13 13 14 15 17 18 17 18 19 20 17 16 17 17 12 7 8 8 8 9 7 8 8 8 15 17 15 13 13 19 15 7 8 14 16 19 15 14 13 9 21 26 24 23 21 21 19 18 15
18 18 17 17 17 16 15 14 14 15 14 15 15 15 15 15 15 14 13 12 10 7 6 5 6 7 9 13 13 13 19 27 27 21 18 17 17 16 15 13 12 13 14 16 16 16 17 20 19 15 14 14 13 9 6 8 7 8 9 7 9 10 9 11 17 18 17 13 15 15 10 6 11 17 19 15 13 13 13 28 26 22 23 21 19 17 16 15
19 18 18 17 16 16 16 15 14 15 15 15 15 13 11 11 11 11 11 10 7 4 7 5 4 8 13 13 12 13 19 24 26 25 21 19 19 18 16 15 13 13 13 15 17 16 16 17 13 11 13 11 9 8 8 8 8 8 8 8 10 11 11 9 15 18 20 15 12 15 13 0 9 14 16 16 14 12 11 26 26 21 22 20 18 18 15 14
20 19 18 17 16 17 17 16 14 15 15 16 13 8 8 7 5 5 6 6 4 4 6 7 6 6 13 19 20 17 19 21 23 24 22 21 21 19 18 17 14 15 15 15 17 16 13 14 11 9 10 10 10 10 8 9 9 9 9 8 9 11 13 11 13 16 19 17 12 15 14 4 9 10 13 15 15 14 13 21 26 22 20 20 22 21 18 15
21 19 18 16 16 16 17 16 14 14 15 15 10 5 8 7 5 5 7 7 9 8 5 11 17 8 5 14 24 21 17 19 22 22 22 23 22 20 19 17 16 18 17 12 15 17 13 11 11 9 9 12 12 12 12 12 13 12 12 11 10 10 12 13 13 17 19 16 13 14 13 10 9 8 9 10 11 11 11 17 22 21 20 22 23 21 19 16
21 19 18 16 15 15 16 15 14 14 15 13 9 7 8 7 6 7 14 17 18 16 11 16 27 22 16 16 16 18 14 18 23 22 23 23 23 22 21 19 18 18 16 11 12 17 15 10 11 12 12 15 16 16 17 17 15 13 12 11 13 12 11 12 14 18 18 13 12 14 11 12 10 8 7 5 4 3 6 12 15 19 21 21 22 21 18 17
21 20 18 16 15 15 16 15 14 14 13 11 9 9 12 12 6 4 9 19 24 24 21 22 23 24 27 25 14 12 10 14 20 21 22 24 25 22 21 21 17 13 14 15 13 15 16 11 12 15 15 17 17 17 17 18 18 14 11 10 12 12 10 12 15 19 18 12 12 14 12 13 10 8 7 7 7 8 11 12 16 22 24 20 19 20 18 16
21 20 18 16 14 14 15 15 14 13 12 11 10 14 18 16 10 10 5 11 18 24 26 28 25 24 27 27 19 9 10 13 17 19 21 25 26 21 19 20 15 11 14 16 12 12 13 12 15 17 17 17 17 16 17 19 18 14 10 9 9 10 9 11 15 19 17 10 11 14 13 12 11 10 9 10 10 16 21 20 20 21 22 20 17 19 18 16
20 19 18 16 14 14 14 14 14 13 12 11 13 17 18 15 10 11 11 10 12 19 26 28 28 27 27 26 18 10 12 14 16 21 24 25 27 24 20 17 15 14 15 16 13 11 10 12 16 17 17 17 17 16 17 16 14 11 10 8 8 10 10 9 12 17 17 10 11 15 14 10 11 10 8 10 12 16 19 18 18 18 20 20 18 18 17 15
19 18 17 15 14 14 13 13 14 14 13 13 16 18 16 14 11 10 11 11 12 15 23 26 25 28 29 24 16 13 16 17 17 22 27 27 28 25 19 18 17 14 15 18 19 14 11 13 17 18 17 19 18 16 17 13 10 11 12 9 9 12 14 11 8 12 13 12 15 12 12 8 10 10 8 9 12 14 13 13 15 15 16 17 17 18 16 15
18 17 15 14 14 13 11 13 14 13 12 15 17 13 11 12 10 9 9 9 11 13 19 22 23 27 28 22 18 18 17 18 20 22 28 30 28 22 17 18 16 13 17 21 20 15 13 15 18 19 18 19 18 15 16 14 9 10 13 14 14 12 16 13 12 12 9 10 15 11 9 7 10 11 10 9 9 12 11 11 12 11 11 12 15 15 14 14
17 16 15 14 13 10 9 11 10 8 11 15 14 9 9 11 8 7 7 6 8 10 14 19 19 21 26 24 22 21 15 16 21 21 27 30 28 22 16 15 13 13 18 18 13 9 11 16 18 18 19 20 18 15 16 16 10 7 11 16 18 13 15 13 16 13 8 8 12 11 7 6 9 11 12 12 10 12 10 9 10 9 10 10 12 13 12 12
16 15 15 13 12 10 8 9 7 6 11 12 8 7 8 9 7 5 6 6 7 9 15 19 16 16 26 27 25 20 10 12 19 21 27 30 29 25 17 13 12 13 15 12 9 8 11 17 18 19 20 17 16 13 14 17 11 7 11 16 17 15 16 13 16 12 8 8 10 12 11 7 8 12 16 17 13 13 10 8 8 8 10 11 12 12 12 12
16 15 13 12 12 10 10 10 10 9 8 4 3 7 8 8 7 4 4 5 3 8 13 18 17 17 25 28 29 23 12 13 16 18 25 29 29 25 17 15 14 14 16 12 9 10 12 16 17 19 18 14 13 13 15 18 13 10 12 14 15 16 17 13 13 11 8 8 10 13 13 8 6 10 15 17 13 12 12 9 8 9 11 11 12 12 12 13
13 12 12 11 10 10 12 13 13 11 5 1 2 7 8 6 5 3 5 5 3 9 11 17 17 18 24 26 28 26 18 15 16 16 23 28 29 24 15 17 16 15 18 15 12 11 13 17 18 16 14 11 13 15 17 17 13 13 14 11 13 15 13 12 10 11 9 8 9 12 13 9 5 9 13 13 13 12 12 10 9 11 12 11 12 11 11 13
9 10 11 10 9 10 11 12 15 12 6 4 3 6 6 5 4 4 6 5 4 9 12 16 16 17 22 21 20 23 21 17 18 20 22 24 29 26 18 19 18 13 15 16 16 14 14 18 18 13 13 13 14 17 17 16 14 14 15 11 12 12 9 10 8 8 7 7 11 15 16 13 7 8 10 10 11 14 14 11 11 13 13 13 12 12 11 12
8 10 11 11 10 9 9 12 13 11 9 6 5 7 6 4 4 6 7 6 4 9 11 13 15 17 22 20 16 20 20 16 17 20 17 17 22 22 17 16 14 11 11 12 15 16 15 16 13 11 16 15 14 15 15 15 16 14 13 10 10 8 6 8 6 7 6 7 12 16 16 15 9 5 8 8 11 15 15 13 13 14 14 15 14 12 12 12
10 11 12 12 11 10 11 10 6 8 11 8 7 8 6 5 6 6 7 7 4 8 11 12 14 15 20 21 16 18 19 15 16 19 15 13 14 15 14 12 10 10 11 11 13 14 14 14 12 14 18 17 13 11 13 13 13 13 11 9 9 8 6 7 7 8 7 8 13 16 15 10 3 2 6 10 13 15 15 15 16 16 16 16 14 13 12 12
11 12 12 13 13 13 14 8 2 2 10 9 9 8 4 5 7 8 10 6 4 7 9 13 15 15 19 19 15 18 19 15 16 18 17 15 14 15 17 16 15 12 10 11 12 11 11 13 16 15 14 16 15 10 10 11 12 13 12 9 9 9 7 7 7 8 8 10 13 17 14 7 3 4 5 11 15 16 17 18 18 18 17 16 15 13 12 12
9 10 11 12 14 15 14 9 3 3 8 9 8 6 5 6 7 11 12 7 3 7 8 11 16 17 18 16 14 17 16 15 18 18 17 16 13 13 15 18 20 16 10 10 10 11 13 12 14 13 10 14 17 13 11 11 11 12 12 10 10 9 8 7 7 7 7 9 11 12 7 4 5 4 7 13 18 19 20 20 19 18 17 15 15 13 13 13
7 8 11 12 14 16 13 9 7 6 6 8 6 5 7 7 6 8 7 6 2 7 9 11 15 15 16 15 16 19 16 13 17 17 15 15 13 14 14 16 20 18 11 9 7 10 14 11 12 16 14 16 18 16 14 13 11 10 11 11 10 10 8 5 6 6 3 5 8 5 1 4 5 7 11 16 17 18 19 19 19 18 16 15 14 13 12 12
7 7 10 12 14 15 12 10 9 7 7 8 5 6 9 7 4 2 2 7 6 5 8 9 14 13 13 12 14 21 19 15 16 15 12 15 15 16 16 14 18 19 14 10 6 8 12 10 14 19 17 18 20 18 16 13 9 7 10 12 10 12 11 4 5 5 1 3 4 5 6 5 6 6 9 14 14 14 16 17 18 18 17 15 14 12 12 11
7 7 9 12 14 13 12 12 11 9 9 8 6 6 7 6 5 6 6 7 8 8 7 7 10 9 12 12 11 19 20 15 16 14 10 14 14 16 19 16 19 22 18 13 7 7 10 9 14 20 17 18 21 20 19 17 12 8 9 11 9 11 11 4 3 5 4 5 3 8 10 9 7 4 7 13 14 13 13 14 16 16 17 16 14 12 12 11
6 7 10 12 13 13 14 14 12 11 10 7 7 8 7 8 9 11 9 8 8 7 4 4 7 8 11 12 11 18 20 14 14 14 11 11 11 17 19 16 19 23 22 18 10 8 11 9 11 18 16 15 18 17 16 17 19 14 9 9 7 7 9 5 3 5 6 6 3 7 11 10 6 6 11 14 15 14 13 12 13 13 14 15 15 13 11 10
6 8 9 10 13 14 16 16 14 12 9 6 7 7 7 8 10 12 10 7 8 6 3 4 6 8 10 12 12 16 19 15 13 13 11 9 10 18 20 15 17 23 23 20 11 7 10 8 7 16 17 14 13 11 11 12 17 17 12 10 8 7 7 7 5 5 6 6 5 5 7 5 4 8 15 17 15 16 15 11 11 12 13 15 14 12 11 10
7 7 5 11 14 15 18 17 15 11 7 7 7 7 7 7 8 10 12 11 10 5 3 4 5 6 7 10 12 14 16 16 14 12 10 11 11 16 21 17 16 21 24 22 15 8 8 7 6 12 16 14 10 10 12 12 13 14 12 11 10 7 7 8 7 7 7 6 5 5 5 3 2 2 11 16 15 14 15 13 12 14 15 14 14 12 10 10
6 4 6 13 14 16 19 15 11 9 6 6 7 9 8 5 5 10 15 17 13 4 4 4 5 6 6 7 9 11 14 14 14 12 9 12 12 10 17 19 16 18 21 19 15 9 5 5 6 8 12 12 11 13 16 15 13 13 11 11 11 10 8 8 8 9 9 7 6 4 4 3 2 4 3 12 14 14 17 16 14 16 16 15 14 13 11 10
6 2 8 16 15 17 17 10 7 8 7 7 8 10 7 3 5 12 16 16 13 7 6 5 4 5 5 7 10 8 12 12 13 12 9 12 13 9 17 25 22 21 18 14 14 11 5 4 6 8 9 12 14 16 18 19 19 16 13 12 11 9 9 9 7 7 8 8 7 2 3 3 3 7 2 10 16 18 19 19 18 17 16 15 14 13 12 10
4 2 10 16 16 17 13 6 6 8 7 8 11 13 10 4 6 13 14 10 8 4 4 4 3 5 5 7 12 10 11 13 13 14 11 12 14 12 18 26 26 21 16 12 12 12 5 3 7 8 8 12 15 15 17 19 19 15 12 12 12 11 12 10 7 4 4 7 6 3 4 2 3 6 3 16 21 20 20 20 20 18 16 16 15 14 12 11
1 3 9 13 15 15 10 5 5 6 7 10 12 12 11 7 9 13 10 6 5 3 2 4 4 4 7 9 12 11 9 9 12 15 11 9 12 15 20 27 26 18 14 12 10 11 7 5 8 9 8 10 12 11 14 17 15 10 10 14 15 15 14 11 7 4 2 8 10 3 3 3 2 1 8 18 19 18 20 20 20 19 17 16 15 14 13 12
2 1 6 12 14 13 10 7 5 5 7 9 11 11 9 7 11 13 9 7 7 4 2 3 4 5 9 13 12 11 12 10 8 13 11 9 11 14 19 26 24 17 16 17 14 14 8 6 6 8 9 10 10 10 11 11 11 10 13 19 19 18 16 10 6 5 4 8 9 2 6 7 6 6 11 15 15 16 19 19 19 18 17 16 16 15 14 14
2 1 4 8 12 13 12 11 10 8 7 8 9 9 7 6 9 10 7 6 7 6 5 4 2 3 10 13 9 9 13 14 8 11 10 10 9 9 16 23 23 20 19 18 17 14 6 5 8 11 10 7 7 11 11 11 12 13 15 18 18 18 18 11 6 6 5 4 1 3 13 16 11 11 13 15 15 15 16 18 19 18 17 17 16 16 15 14
4 3 6 8 8 9 11 13 13 8 5 7 6 5 6 8 8 5 3 4 6 6 6 5 4 7 10 9 7 8 11 12 10 15 13 11 10 10 16 20 22 22 19 16 16 12 3 6 10 11 8 3 3 7 13 15 15 15 16 17 15 16 17 12 5 2 2 1 2 6 17 19 14 13 15 15 15 14 15 19 19 18 18 18 17 17 16 15
4 1 5 9 7 4 5 9 10 8 7 9 6 4 6 8 7 4 3 5 7 6 4 4 6 10 12 8 5 5 7 10 7 13 10 9 10 11 15 18 18 18 18 16 14 9 3 6 6 4 5 4 3 4 7 12 14 13 14 15 13 13 14 11 2 7 6 3 7 12 17 17 15 14 13 14 15 15 16 19 19 19 19 19 18 18 16 15
3 5 5 0 3 4 4 7 9 8 8 6 5 6 7 8 8 6 5 5 6 6 5 6 7 9 12 9 6 5 4 6 2 3 2 2 4 6 10 14 14 14 15 15 12 8 5 4 5 3 5 8 7 2 6 9 13 14 16 16 14 10 9 9 6 14 13 11 15 18 17 15 14 14 12 13 16 18 18 18 19 20 19 19 19 18 16 15
5 6 7 7 6 7 9 10 9 7 4 2 3 6 7 8 9 7 6 6 5 6 6 7 9 10 10 8 6 6 3 4 4 3 3 1 3 4 6 8 9 10 13 13 9 8 6 4 6 5 4 7 6 3 1 2 3 8 14 13 8 1 5 3 11 17 16 14 17 20 18 12 11 14 15 16 18 19 18 18 19 19 19 19 19 17 15 14
7 5 6 6 5 6 7 6 4 3 3 3 5 5 5 7 8 7 7 9 9 9 7 8 9 9 9 7 5 6 4 5 6 2 9 7 3 3 4 4 7 10 11 9 7 7 6 3 3 4 5 8 7 7 6 8 10 6 3 5 6 8 9 7 8 9 13 17 17 16 13 9 11 16 17 17 19 20 19 19 19 18 19 19 18 17 16 14
8 6 7 5 3 3 4 3 2 2 3 3 4 5 6 8 8 8 7 7 10 13 12 10 8 7 7 5 4 5 5 8 7 5 11 11 7 6 5 8 8 11 11 7 6 5 5 4 2 4 5 4 5 8 10 9 8 6 9 11 9 7 9 9 9 7 12 16 11 8 9 11 15 18 17 16 18 18 18 18 18 19 19 19 18 17 15 14
Wind_Direction
326 324 321 319 317 315 311 309 306 307 305 305 306 304 304 297 289 282 277 267 259 260 259 266 266 265 271 275 278 274 277 276 267 261 254 254 248 241 238 225 215 204 204 200 171 189 211 215 222 223 224 227 226 234 232 218 224 230 228 241 242 238 240 250 240 203 95 109 89 135 171 205 163 186 215 154 170 155 152 130 94 96 98 99 108 122 131 137
325 325 325 324 323 322 317 310 304 303 301 302 301 301 301 297 292 283 277 269 259 254 251 259 263 263 270 274 279 282 283 278 277 268 250 243 240 235 230 228 229 214 205 200 189 201 209 212 215 215 219 225 219 223 229 208 212 232 222 234 239 241 246 249 19 30 46 96 80 97 197 224 156 173 176 187 190 152 160 150 116 105 104 110 114 121 129 132
322 323 324 324 324 324 323 318 310 308 307 306 304 302 299 295 291 285 279 271 260 252 247 249 255 259 264 271 282 287 289 291 288 272 255 244 237 237 233 228 225 214 209 201 200 212 213 213 207 210 218 225 222 214 217 202 201 225 227 238 232 244 262 243 72 42 42 57 70 126 202 170 137 162 165 194 191 157 174 162 141 124 119 120 118 121 126 129
319 320 322 322 320 321 323 321 315 311 310 310 308 306 303 297 290 285 279 272 259 248 246 244 245 249 255 267 276 283 308 307 284 257 252 249 237 238 236 230 223 213 209 193 197 222 223 220 211 212 223 228 226 215 210 202 194 217 222 240 234 259 301 327 104 76 56 34 35 98 196 189 136 136 172 195 191 185 189 170 158 136 127 125 123 126 126 132
317 317 319 320 318 319 321 320 317 312 311 312 309 304 304 302 294 287 280 273 258 245 245 242 238 241 246 253 259 267 315 309 259 211 233 242 231 233 232 227 222 213 206 187 195 230 227 226 222 214 227 237 225 214 214 212 206 224 226 240 251 288 315 301 183 201 120 177 324 119 206 183 151 168 212 212 192 188 189 172 151 131 129 129 129 129 128 136
313 314 315 317 316 317 318 319 318 315 316 317 312 305 301 299 298 294 286 276 259 245 241 237 230 231 237 233 228 213 230 263 99 170 216 220 221 225 226 221 214 210 202 193 206 230 223 225 228 216 223 240 239 223 215 217 214 231 235 238 253 274 289 289 204 173 124 241 249 223 356 110 162 203 227 224 109 77 67 105 125 124 127 128 130 125 126 134
308 309 311 314 315 315 316 317 318 318 318 318 315 309 301 297 297 294 288 277 259 243 233 229 218 221 231 217 214 219 238 249 212 210 233 245 242 227 224 216 207 206 201 202 217 223 216 220 224 221 222 229 244 236 216 219 219 230 247 244 247 242 256 288 208 140 181 241 244 233 20 173 210 208 207 204 117 102 86 100 115 117 119 118 118 118 124 128
302 304 307 309 312 313 313 314 316 319 317 314 313 308 296 291 292 290 286 275 260 244 227 219 205 215 225 204 221 245 239 241 233 239 256 269 258 226 218 211 202 202 202 206 215 218 215 218 220 220 225 226 236 239 222 221 222 226 247 257 252 226 229 242 215 143 204 223 227 219 200 205 223 203 194 184 127 134 113 114 121 118 117 111 111 121 125 122
296 299 302 304 308 310 311 312 315 320 316 308 304 302 291 283 283 284 283 275 262 246 227 213 198 206 213 198 240 266 247 242 231 229 249 257 244 218 205 201 201 200 203 208 213 219 217 216 221 220 228 232 234 240 230 226 222 217 230 248 256 237 229 228 217 218 213 209 207 211 210 205 204 198 191 163 142 159 137 130 131 121 114 108 110 125 125 122
291 294 297 300 304 306 308 309 314 319 314 306 299 297 290 283 282 282 281 277 263 247 231 211 196 196 192 200 258 262 246 234 208 194 205 201 206 207 193 194 205 201 203 210 214 219 220 218 220 223 234 242 244 250 240 233 231 220 225 236 243 243 233 229 223 219 220 215 209 208 214 196 176 201 187 145 144 162 165 148 137 128 118 115 116 124 124 123
286 290 293 297 300 304 305 306 313 316 313 306 299 295 287 282 283 282 281 278 264 250 237 210 197 195 183 227 258 238 205 193 182 188 202 193 196 207 200 199 205 205 206 212 216 218 221 222 221 225 233 242 254 260 256 244 239 237 236 237 236 237 231 222 219 217 217 214 207 207 214 183 163 222 208 153 152 166 183 139 127 126 120 123 121 119 121 118
282 284 288 293 297 300 302 304 311 314 311 304 297 293 284 277 278 281 280 276 262 249 237 209 199 195 195 264 246 216 186 196 195 191 208 208 209 215 213 208 206 209 211 214 218 218 221 223 224 229 228 229 242 251 264 250 240 235 233 244 235 230 233 219 210 213 212 201 198 209 218 175 169 228 213 152 157 174 179 126 118 121 119 126 122 116 119 126
278 279 283 289 294 297 299 302 308 311 306 299 296 294 286 277 276 279 279 277 265 250 237 215 202 197 237 273 237 211 195 211 229 224 220 214 215 218 216 215 213 214 216 218 220 219 221 223 225 233 233 237 240 234 276 255 237 235 228 245 239 223 226 216 209 213 211 192 188 209 222 168 188 212 158 129 155 177 176 133 123 121 120 124 120 117 120 129
274 277 280 285 290 295 297 300 307 309 303 298 295 291 286 282 283 283 282 279 268 255 245 224 204 198 248 264 240 224 220 230 252 248 238 225 219 220 215 215 220 221 221 223 224 220 220 223 226 234 238 244 248 236 255 245 224 231 229 228 236 233 215 203 206 212 211 195 189 208 224 170 194 188 147 146 165 178 180 136 128 124 122 121 116 118 120 122
272 275 278 281 285 290 293 297 304 305 301 296 290 288 291 294 295 290 284 274 263 257 247 219 201 205 259 265 260 248 231 231 244 243 234 228 222 220 213 211 218 221 221 221 226 226 219 218 223 233 237 242 251 245 242 239 214 217 227 219 221 236 222 195 194 204 211 199 188 200 229 197 192 167 150 160 164 177 148 113 123 126 122 119 116 117 116 116
270 273 274 276 280 286 289 292 299 301 299 293 290 296 301 301 294 285 278 268 265 253 218 205 197 215 262 265 264 259 233 228 232 231 226 223 220 219 212 211 214 214 218 218 223 227 218 215 218 225 231 233 243 244 235 234 214 205 217 227 217 221 236 198 180 196 209 201 183 197 235 219 171 150 150 166 173 186 132 109 124 129 121 124 122 117 112 112
267 269 269 270 274 280 285 289 294 298 296 292 295 311 318 308 290 279 274 262 255 215 205 216 206 231 252 264 269 248 223 221 223 222 223 219 215 217 212 210 211 206 212 212 216 225 214 208 209 213 227 230 224 221 225 223 209 204 206 230 228 215 237 207 166 187 205 201 181 202 235 287 116 141 159 180 183 195 151 122 130 130 127 132 121 112 107 104
264 264 263 264 268 273 280 285 291 296 296 295 300 329 345 320 293 283 281 259 199 182 251 243 220 244 248 244 244 233 217 216 214 213 216 214 210 212 212 209 205 199 204 204 208 215 200 195 203 206 217 224 219 212 219 218 206 206 200 218 233 217 231 217 165 177 198 198 182 204 228 159 124 151 166 185 184 196 189 137 127 128 126 117 108 113 115 107
259 258 257 258 263 270 276 279 287 294 296 299 301 335 343 314 294 272 244 218 181 185 236 205 194 207 278 238 220 218 224 212 204 206 206 204 202 207 210 206 201 199 200 197 196 198 188 189 207 214 210 211 215 211 218 225 213 208 205 212 226 219 229 222 174 167 189 196 187 206 211 163 151 158 162 183 184 191 178 131 123 129 120 104 106 116 116 108
254 250 249 252 258 264 271 277 285 291 296 303 302 306 298 247 241 245 211 207 208 212 225 201 193 210 264 276 223 208 223 205 195 199 199 194 191 199 205 199 198 201 201 196 187 191 193 198 208 212 212 208 211 214 222 235 231 218 207 211 225 226 227 213 172 161 183 197 197 203 186 155 153 146 141 145 145 137 128 117 108 112 109 103 111 116 112 107
255 248 243 245 253 258 267 276 280 288 297 300 287 272 251 223 242 309 203 209 220 224 237 231 211 220 250 270 251 199 194 193 191 193 192 187 185 192 197 192 195 199 201 200 189 191 200 212 214 211 214 211 211 215 222 238 245 242 223 208 223 233 224 202 171 161 180 200 200 190 159 144 135 113 94 77 85 62 59 74 78 93 103 102 107 110 107 104
250 248 244 242 247 254 264 273 278 290 296 288 269 252 248 251 289 327 289 234 233 230 237 242 238 239 248 263 267 230 194 194 191 192 189 182 184 190 187 188 199 194 194 201 192 191 205 218 215 209 215 217 215 214 219 234 243 254 247 216 218 231 224 207 181 166 175 202 201 172 145 132 115 99 82 66 73 63 55 60 72 89 98 99 104 103 100 97
241 239 241 240 243 252 260 270 280 287 283 268 255 249 252 263 281 301 291 273 260 237 232 239 241 242 245 250 253 229 214 212 197 194 191 182 185 193 188 187 201 194 191 202 200 196 204 213 213 209 213 217 219 212 215 231 235 243 251 229 218 215 217 219 188 170 170 194 206 161 136 133 122 116 102 80 82 77 67 67 75 83 89 95 104 101 100 99
239 233 235 236 239 249 257 270 279 279 273 258 251 249 253 259 267 288 282 271 272 247 233 233 231 235 238 236 229 214 219 224 212 197 191 187 187 193 197 192 196 200 196 201 207 210 208 203 206 210 210 212 220 213 210 225 225 229 240 238 226 206 216 227 177 165 168 193 218 171 132 145 140 137 133 106 95 92 86 83 80 83 88 89 92 93 94 97
236 230 229 230 233 244 256 272 279 277 265 252 248 246 246 251 258 277 278 269 266 251 242 232 222 228 229 228 224 216 220 226 223 202 187 189 189 189 200 197 196 206 200 201 208 215 215 200 198 209 210 208 217 215 209 218 217 222 229 239 244 218 218 216 159 162 178 196 220 191 143 159 158 158 154 137 117 104 99 97 90 85 90 87 84 87 87 89
232 225 223 224 227 237 252 265 281 276 245 240 242 238 235 237 240 249 250 266 262 236 225 212 206 213 212 215 215 211 220 223 222 208 184 189 194 191 198 196 198 211 201 201 210 215 215 203 197 206 209 206 215 216 207 211 218 220 216 234 252 243 230 207 153 166 200 199 217 202 172 173 179 180 161 146 128 111 107 104 100 88 88 88 83 85 86 90
229 219 216 217 220 224 232 250 288 275 234 232 232 220 215 209 208 216 223 260 259 213 198 189 184 188 194 201 201 202 217 199 210 215 186 185 196 197 204 196 192 211 204 199 210 207 205 206 200 203 207 204 212 216 201 204 218 222 208 221 242 250 245 212 156 168 211 203 220 212 198 209 202 183 158 148 134 119 121 117 112 100 90 89 84 82 85 90
220 209 210 215 218 223 229 250 282 272 239 229 193 185 180 187 201 202 214 254 209 167 175 175 172 175 183 191 193 202 217 175 191 216 189 184 196 199 208 207 194 205 207 203 208 196 195 211 206 198 206 207 205 211 203 202 213 224 212 208 225 242 254 233 176 175 203 205 227 214 202 223 209 164 151 152 150 137 132 130 126 114 100 93 90 88 86 86
208 200 208 214 221 235 239 249 254 242 237 312 166 177 174 184 207 208 224 242 142 131 148 158 164 173 180 186 191 201 214 190 183 196 184 185 198 203 211 213 202 203 211 214 215 196 185 213 218 196 204 213 199 208 211 203 204 226 224 203 214 234 255 258 216 188 191 204 231 215 199 218 203 151 152 163 169 158 140 136 133 120 113 105 101 100 96 92
202 201 210 216 228 239 245 251 240 222 232 269 203 189 190 183 201 202 206 226 168 146 148 150 160 177 182 183 187 195 208 206 186 180 180 183 196 207 213 214 213 207 211 217 221 213 186 205 227 208 201 212 202 205 213 205 198 223 237 216 209 224 247 267 240 194 194 209 229 220 202 211 211 156 164 181 175 155 140 141 138 126 122 118 113 112 103 94
211 215 220 225 227 235 244 250 242 222 229 244 196 199 209 193 222 208 197 241 226 154 149 155 166 177 184 184 182 190 204 212 189 176 179 180 190 205 207 209 218 207 206 214 217 219 200 195 223 220 203 207 206 202 208 206 198 214 238 224 204 206 229 254 227 187 202 216 229 227 208 208 219 181 174 182 161 144 139 145 143 134 130 126 121 116 106 94
229 228 232 231 222 228 230 231 246 217 210 215 198 202 205 194 226 224 214 247 229 154 157 173 180 181 186 186 181 187 199 209 192 177 181 182 183 200 204 200 205 195 200 210 200 207 212 197 201 210 200 200 208 201 202 204 197 209 228 220 205 195 202 233 220 197 207 217 225 225 210 201 209 114 136 136 130 129 134 141 139 134 131 128 123 116 107 94
239 235 236 231 219 223 220 214 301 188 176 187 197 201 208 199 212 225 232 237 157 158 171 174 184 189 185 185 184 189 196 203 194 179 180 191 186 194 208 206 204 203 199 205 194 189 210 203 195 200 193 198 216 210 194 198 195 205 216 212 209 201 193 214 220 211 213 221 226 222 209 181 114 63 85 109 112 117 127 134 132 128 124 121 118 111 102 91
239 236 234 228 219 220 214 203 220 169 156 181 197 195 212 221 214 215 232 254 165 180 205 181 179 188 187 188 189 186 193 204 197 179 175 193 193 188 205 208 207 212 199 197 201 190 204 205 188 192 189 193 215 224 204 192 194 205 214 216 213 205 203 208 217 225 219 226 233 227 215 161 142 117 96 108 112 118 125 126 124 120 117 114 111 105 97 88
229 225 224 223 218 217 213 203 200 180 168 191 205 204 205 215 222 208 229 293 261 191 223 200 175 183 187 189 192 187 193 206 194 182 180 193 198 189 197 205 206 209 198 192 202 192 207 213 180 188 202 196 207 225 212 193 196 204 213 222 210 204 216 207 207 230 232 237 236 216 74 67 118 118 114 118 120 126 130 128 125 121 118 115 108 102 97 87
227 225 227 225 218 211 206 201 197 190 195 203 215 223 213 216 238 239 315 315 299 250 250 209 175 182 186 185 193 187 193 208 191 183 190 194 200 196 193 202 205 207 204 195 193 186 202 215 184 184 203 204 203 215 214 205 199 192 213 225 201 200 224 217 196 220 240 256 227 123 97 99 114 123 132 130 128 137 140 134 131 126 121 114 107 102 97 90
232 235 232 220 212 205 198 196 190 192 208 219 231 231 229 247 292 324 333 324 309 299 282 217 181 186 186 185 194 184 189 207 192 182 193 193 198 198 194 200 204 210 211 194 190 201 206 219 195 185 197 204 201 210 220 220 211 194 212 220 194 201 226 229 198 209 209 235 214 122 134 150 145 146 152 147 145 150 151 143 135 129 123 114 107 107 101 95
228 236 238 218 202 197 191 188 184 192 209 227 244 248 256 275 291 302 311 324 319 315 313 234 212 213 196 188 188 181 187 202 191 184 191 191 196 195 194 198 201 211 213 196 191 206 209 221 192 181 193 198 194 208 223 219 213 212 207 198 197 214 220 213 209 210 206 221 204 132 145 162 162 154 160 163 162 159 155 148 139 132 124 116 111 111 106 99
235 246 241 199 181 184 182 179 185 198 212 223 235 245 252 254 262 276 289 302 297 287 288 280 254 236 215 199 185 178 188 201 195 190 191 189 193 189 192 198 197 207 211 200 197 196 204 231 192 176 191 195 186 204 221 205 203 214 208 191 206 230 218 209 206 209 219 222 203 156 163 178 151 153 169 170 163 159 155 148 141 134 126 119 116 113 108 102
251 254 206 159 164 174 172 176 191 203 219 229 235 247 256 262 272 285 289 286 286 273 244 278 269 258 249 223 197 177 189 204 199 196 193 186 183 182 191 197 193 201 206 202 203 196 194 228 212 178 187 196 192 199 214 209 197 207 212 196 199 219 227 222 205 204 224 226 201 173 169 164 77 140 178 168 157 155 150 142 138 132 125 118 117 115 110 105
259 264 161 155 162 167 168 178 199 212 224 234 243 251 262 298 308 293 287 277 271 240 199 239 251 264 284 259 223 184 185 203 200 197 196 187 187 185 193 197 191 194 201 203 204 198 186 210 214 187 184 196 203 196 208 218 205 196 207 208 203 203 214 223 212 205 214 227 225 192 151 136 38 339 199 158 151 149 143 139 133 126 122 116 115 117 113 109
263 266 160 163 164 166 173 188 211 218 229 233 242 250 260 327 311 288 283 267 252 225 215 240 257 274 284 274 269 226 189 197 199 196 200 194 197 202 195 195 195 194 196 204 200 185 178 214 211 198 192 202 207 196 201 219 219 208 206 212 213 205 204 219 227 211 205 225 237 191 102 98 8 335 336 140 143 142 138 136 129 122 121 118 118 120 117 112
242 158 149 162 168 172 182 212 216 215 232 239 246 253 251 251 270 275 275 254 236 234 253 276 294 292 281 269 281 265 205 196 196 198 207 200 197 206 197 192 196 194 190 204 196 168 160 222 209 197 197 208 210 197 195 214 226 222 207 208 222 221 205 207 229 222 196 225 222 106 82 103 9 341 82 124 132 135 131 129 126 125 124 122 122 121 118 113
214 140 151 165 178 185 199 231 220 220 239 239 243 249 250 256 259 259 262 252 243 247 278 301 309 310 302 285 276 268 243 214 191 191 211 211 194 200 198 194 198 193 184 198 187 154 159 213 208 196 189 198 205 196 193 204 215 220 206 206 221 231 222 212 221 214 190 234 227 162 100 129 107 58 114 120 127 130 127 126 127 128 127 125 124 121 118 113
356 179 166 169 182 199 222 248 257 270 271 263 261 251 243 262 261 248 247 262 263 255 254 304 349 353 305 284 268 265 275 271 201 182 209 221 190 194 201 197 197 192 188 190 166 147 171 204 198 202 194 190 200 200 193 194 202 213 212 208 211 223 230 222 205 209 208 225 233 172 116 123 123 129 127 127 130 129 128 129 128 129 128 126 125 121 119 114
296 205 156 161 182 209 235 253 255 257 275 286 279 260 244 261 263 248 244 266 276 281 278 280 334 319 275 268 263 264 272 267 218 172 201 214 180 199 214 198 192 191 191 183 154 145 183 209 198 214 208 194 210 209 198 193 201 208 211 212 210 216 232 234 210 222 221 196 256 105 136 141 144 147 141 139 137 131 133 132 129 130 128 126 125 121 118 114
271 188 167 165 182 215 233 241 239 236 274 295 284 278 279 274 267 246 228 257 263 264 273 267 252 256 257 255 255 261 273 267 212 169 191 208 176 200 219 203 194 186 179 180 165 153 200 206 199 223 226 231 265 221 212 210 207 204 206 215 217 214 228 241 214 198 247 166 87 127 140 141 151 159 150 145 141 136 137 135 132 133 130 127 125 121 117 111
261 195 164 170 183 216 231 245 248 236 249 270 273 286 291 277 267 253 245 270 269 261 269 269 250 247 250 254 251 252 290 290 214 164 181 206 179 193 209 199 189 167 160 179 174 154 207 203 188 233 244 241 271 292 264 233 211 203 205 218 229 217 218 228 165 73 54 97 134 143 141 137 147 154 147 142 139 134 134 133 133 133 130 127 125 120 116 110
293 349 2 278 255 301 318 312 295 254 232 253 277 275 280 279 274 271 274 285 283 273 268 269 264 250 244 245 238 230 288 324 303 134 125 170 168 214 206 185 177 159 166 189 178 163 207 189 154 199 239 233 223 276 297 251 221 214 206 212 229 233 229 223 136 91 90 110 128 136 133 128 140 146 139 132 131 130 132 134 135 134 132 129 124 119 114 109
346 344 351 350 332 325 328 329 315 275 250 305 297 281 283 281 276 276 277 277 278 281 273 264 264 258 246 240 235 234 259 359 4 336 314 123 135 248 231 185 172 170 185 194 172 169 197 158 145 174 218 228 194 138 307 292 269 231 210 207 217 22 25 82 104 97 99 111 120 124 121 121 135 136 129 127 130 133 137 140 138 135 133 129 122 118 115 111
355 335 350 357 338 329 330 330 326 306 298 278 271 288 294 282 288 300 290 277 269 266 269 273 275 271 259 259 282 291 310 41 76 198 260 258 195 207 242 207 175 175 194 197 165 168 186 158 152 176 198 209 177 134 116 80 53 40 43 25 31 53 54 65 85 99 119 123 123 125 125 135 139 130 125 129 137 141 141 141 137 133 133 129 121 119 118 115
1 355 6 4 321 305 311 308 323 322 303 282 280 292 294 290 302 308 296 281 267 255 254 271 287 290 268 264 316 317 332 34 71 174 232 244 218 198 256 271 231 193 192 189 150 156 167 139 142 199 194 190 151 129 117 98 82 67 36 12 17 68 84 78 62 71 118 130 139 144 142 144 138 134 134 137 143 143 140 139 136 133 131 125 121 121 120 118
Height
1500 1499 1498 1498 1497 1496 1495 1495 1494 1493 1493 1492 1491 1490 1490 1489 1489 1488 1488 1488 1488 1488 1489 1489 1490 1490 1490 1490 1489 1489 1489 1489 1489 1489 1487 1487 1490 1491 1491 1492 1492 1493 1494 1495 1496 1497 1498 1498 1499 1500 1500 1499 1498 1496 1494 1494 1493 1492 1493 1496 1494 1487 1480 1469 1463 1464 1463 1465 1466 1464 1464 1465 1467 1469 1469 1470 1471 1471 1473 1476 1483 1488 1489 1492 1494 1496 1498 1501
1500 1499 1498 1497 1496 1495 1494 1493 1493 1492 1492 1491 1490 1489 1489 1488 1488 1487 1487 1487 1487 1487 1488 1488 1489 1489 1489 1489 1489 1489 1488 1488 1487 1485 1484 1486 1488 1489 1490 1491 1492 1493 1494 1494 1495 1497 1498 1498 1498 1499 1499 1497 1495 1494 1492 1491 1491 1491 1490 1493 1490 1480 1470 1460 1459 1462 1462 1466 1467 1466 1466 1464 1466 1468 1469 1472 1471 1471 1474 1477 1484 1490 1492 1494 1496 1499 1500 1503
1499 1498 1497 1496 1495 1494 1494 1493 1492 1491 1491 1490 1489 1488 1487 1487 1487 1486 1486 1486 1486 1486 1486 1487 1487 1488 1488 1488 1488 1488 1487 1487 1485 1481 1481 1484 1486 1486 1488 1490 1491 1492 1493 1493 1495 1497 1497 1496 1497 1497 1496 1494 1492 1491 1490 1488 1489 1488 1488 1490 1483 1473 1465 1458 1461 1466 1467 1468 1468 1469 1468 1465 1466 1467 1469 1471 1471 1471 1474 1477 1482 1489 1493 1495 1497 1500 1501 1503
1498 1497 1496 1495 1495 1494 1493 1492 1491 1490 1489 1489 1488 1487 1486 1486 1485 1485 1485 1484 1484 1485 1485 1486 1486 1487 1487 1487 1488 1487 1487 1486 1482 1478 1479 1481 1483 1485 1487 1488 1490 1491 1492 1493 1494 1496 1496 1495 1495 1495 1494 1492 1489 1487 1487 1486 1487 1485 1486 1485 1475 1468 1466 1461 1464 1469 1471 1472 1471 1471 1471 1469 1469 1470 1469 1469 1472 1474 1472 1474 1480 1486 1493 1495 1497 1500 1502 1505
1497 1496 1495 1494 1494 1493 1492 1491 1490 1489 1488 1487 1486 1486 1485 1485 1484 1484 1484 1483 1483 1484 1484 1485 1485 1486 1486 1486 1487 1486 1488 1485 1477 1475 1477 1479 1481 1483 1484 1486 1488 1489 1491 1492 1493 1494 1495 1494 1493 1493 1493 1489 1486 1485 1485 1484 1484 1483 1481 1479 1471 1468 1469 1465 1466 1470 1473 1475 1474 1473 1472 1471 1471 1472 1471 1468 1474 1476 1472 1473 1479 1486 1492 1495 1497 1500 1503 1506
1496 1495 1495 1494 1493 1492 1491 1490 1489 1488 1487 1486 1485 1485 1484 1484 1484 1483 1483 1482 1482 1483 1483 1484 1484 1485 1485 1486 1486 1486 1487 1482 1475 1476 1477 1478 1480 1481 1483 1484 1486 1488 1490 1491 1492 1493 1493 1493 1492 1491 1491 1488 1485 1483 1482 1482 1483 1483 1479 1475 1472 1473 1472 1468 1468 1471 1475 1477 1475 1474 1473 1472 1473 1474 1472 1470 1474 1477 1475 1476 1482 1488 1493 1495 1498 1501 1504 1506
1495 1494 1494 1493 1492 1491 1490 1489 1488 1487 1487 1486 1485 1484 1484 1483 1483 1482 1482 1481 1481 1481 1482 1483 1484 1484 1484 1485 1485 1485 1485 1478 1475 1477 1477 1478 1480 1480 1481 1482 1485 1487 1488 1489 1491 1492 1492 1492 1490 1489 1489 1488 1485 1481 1480 1480 1480 1482 1479 1473 1472 1473 1473 1471 1471 1473 1477 1478 1475 1475 1476 1476 1475 1474 1473 1471 1473 1478 1480 1481 1485 1491 1495 1497 1499 1503 1506 1508
1494 1493 1492 1492 1491 1490 1489 1488 1487 1487 1486 1485 1484 1483 1483 1483 1482 1482 1481 1480 1480 1480 1481 1482 1483 1483 1484 1484 1484 1484 1481 1476 1475 1477 1477 1478 1479 1479 1480 1481 1483 1485 1486 1488 1489 1490 1490 1490 1489 1488 1487 1485 1483 1479 1477 1479 1478 1479 1479 1474 1471 1472 1473 1473 1473 1476 1478 1477 1476 1477 1477 1476 1474 1473 1471 1470 1474 1478 1481 1485 1488 1492 1496 1499 1502 1505 1508 1510
1492 1492 1491 1491 1490 1489 1488 1487 1487 1486 1484 1484 1483 1482 1482 1482 1481 1481 1480 1479 1479 1479 1480 1481 1481 1482 1483 1483 1484 1482 1476 1474 1476 1476 1476 1477 1477 1478 1479 1480 1482 1483 1484 1486 1488 1489 1488 1488 1487 1486 1485 1482 1481 1478 1476 1478 1478 1476 1476 1475 1472 1471 1472 1473 1474 1477 1477 1477 1477 1478 1477 1475 1474 1474 1472 1471 1475 1478 1480 1485 1488 1491 1496 1500 1503 1506 1508 1510
1491 1490 1490 1489 1489 1488 1487 1486 1485 1484 1483 1483 1482 1481 1481 1481 1480 1480 1479 1479 1478 1479 1479 1480 1480 1481 1482 1482 1484 1481 1473 1473 1475 1475 1476 1477 1477 1477 1479 1480 1481 1482 1483 1485 1487 1487 1487 1486 1486 1486 1485 1481 1479 1477 1474 1476 1474 1471 1473 1473 1472 1472 1472 1473 1475 1476 1477 1476 1476 1477 1476 1473 1474 1475 1474 1472 1476 1479 1479 1483 1486 1490 1496 1500 1503 1505 1508 1510
1490 1489 1488 1488 1487 1487 1486 1485 1484 1483 1482 1481 1481 1480 1480 1480 1479 1479 1478 1478 1478 1478 1478 1479 1480 1480 1480 1481 1482 1477 1472 1473 1475 1475 1476 1477 1478 1478 1478 1480 1481 1481 1483 1484 1485 1486 1486 1486 1486 1486 1484 1481 1480 1477 1474 1474 1472 1471 1472 1473 1472 1471 1472 1473 1474 1476 1476 1476 1475 1475 1474 1473 1475 1476 1471 1471 1477 1479 1480 1482 1486 1490 1495 1500 1503 1506 1508 1510
1488 1487 1487 1486 1486 1485 1485 1484 1483 1482 1481 1481 1480 1479 1479 1478 1478 1478 1477 1477 1477 1477 1478 1479 1479 1479 1479 1479 1476 1472 1470 1473 1474 1475 1475 1475 1477 1477 1478 1479 1480 1481 1482 1483 1484 1484 1485 1485 1485 1484 1481 1481 1480 1478 1476 1473 1471 1471 1473 1475 1473 1472 1473 1471 1472 1474 1474 1474 1473 1474 1476 1476 1478 1476 1469 1470 1476 1478 1479 1483 1488 1492 1496 1500 1503 1506 1509 1512
1486 1486 1485 1485 1484 1484 1483 1483 1482 1481 1480 1479 1478 1478 1478 1477 1477 1477 1476 1476 1476 1476 1477 1478 1478 1478 1479 1476 1470 1469 1469 1470 1472 1474 1474 1475 1476 1476 1477 1478 1479 1480 1481 1482 1482 1483 1484 1484 1483 1482 1480 1479 1477 1476 1476 1472 1472 1472 1471 1475 1475 1475 1475 1471 1471 1473 1472 1472 1471 1474 1481 1482 1478 1473 1470 1473 1476 1477 1478 1483 1489 1493 1497 1501 1502 1505 1510 1512
1485 1484 1484 1483 1483 1482 1482 1481 1481 1480 1479 1478 1477 1477 1476 1476 1476 1476 1476 1476 1476 1476 1476 1477 1477 1478 1478 1472 1467 1468 1468 1468 1470 1471 1472 1474 1474 1475 1476 1477 1478 1479 1480 1481 1481 1482 1482 1483 1483 1481 1479 1478 1475 1474 1474 1472 1472 1472 1473 1475 1477 1478 1475 1469 1469 1471 1471 1471 1470 1474 1481 1480 1474 1470 1471 1476 1478 1477 1477 1481 1489 1494 1497 1500 1502 1505 1509 1513
1483 1482 1482 1482 1481 1481 1480 1480 1479 1478 1478 1477 1476 1476 1475 1475 1475 1475 1475 1474 1474 1475 1475 1476 1476 1477 1477 1470 1465 1466 1466 1466 1466 1468 1471 1472 1473 1474 1474 1476 1477 1478 1479 1479 1480 1480 1480 1481 1481 1479 1479 1478 1476 1475 1475 1474 1471 1472 1478 1479 1476 1476 1471 1464 1466 1468 1471 1470 1467 1474 1480 1475 1469 1467 1471 1476 1477 1478 1479 1482 1489 1494 1496 1499 1503 1506 1510 1513
1480 1480 1481 1480 1480 1480 1479 1478 1478 1477 1477 1476 1475 1475 1474 1474 1474 1474 1473 1473 1474 1474 1475 1476 1476 1477 1475 1468 1464 1463 1462 1461 1463 1466 1468 1470 1471 1472 1473 1475 1476 1476 1478 1478 1478 1479 1479 1479 1478 1479 1479 1478 1477 1477 1477 1477 1473 1471 1476 1479 1474 1473 1469 1462 1463 1465 1466 1468 1467 1473 1477 1470 1465 1466 1472 1476 1477 1478 1480 1485 1489 1493 1496 1499 1503 1507 1511 1514
1478 1478 1478 1478 1478 1478 1477 1477 1476 1476 1475 1474 1474 1474 1474 1473 1472 1472 1472 1472 1473 1473 1475 1474 1475 1478 1472 1463 1461 1459 1458 1458 1460 1464 1466 1468 1470 1471 1472 1473 1474 1476 1476 1477 1478 1476 1476 1476 1477 1479 1478 1476 1474 1476 1481 1483 1478 1472 1473 1475 1470 1468 1466 1460 1462 1464 1463 1466 1470 1472 1472 1469 1466 1468 1473 1476 1477 1478 1480 1486 1490 1493 1496 1499 1503 1507 1511 1514
1476 1476 1476 1477 1477 1476 1476 1475 1475 1475 1474 1473 1473 1473 1473 1472 1471 1471 1471 1472 1473 1475 1476 1473 1476 1478 1465 1455 1455 1454 1454 1456 1457 1460 1463 1465 1467 1469 1471 1471 1472 1474 1475 1475 1475 1474 1475 1475 1477 1478 1476 1475 1471 1472 1481 1480 1473 1470 1471 1473 1469 1464 1462 1459 1460 1462 1461 1465 1470 1473 1473 1472 1471 1471 1473 1475 1477 1478 1479 1484 1490 1493 1497 1500 1503 1507 1511 1513
1473 1473 1474 1475 1474 1475 1474 1474 1474 1473 1472 1472 1472 1472 1472 1472 1471 1470 1471 1472 1471 1472 1471 1468 1469 1465 1451 1445 1449 1450 1452 1454 1455 1458 1460 1462 1465 1467 1468 1469 1471 1472 1472 1472 1472 1472 1474 1475 1477 1476 1473 1472 1469 1468 1472 1467 1461 1463 1464 1467 1466 1462 1458 1453 1453 1456 1459 1465 1470 1471 1472 1474 1476 1475 1474 1475 1476 1477 1479 1484 1490 1494 1498 1501 1504 1507 1511 1514
1471 1471 1472 1472 1472 1473 1472 1472 1472 1471 1471 1471 1471 1472 1471 1471 1470 1468 1468 1469 1467 1464 1463 1460 1459 1455 1446 1444 1447 1448 1449 1450 1452 1454 1456 1459 1463 1465 1466 1467 1468 1469 1468 1467 1469 1470 1472 1474 1474 1471 1469 1467 1466 1465 1464 1459 1455 1455 1456 1460 1460 1457 1454 1447 1448 1452 1456 1464 1469 1466 1468 1474 1478 1478 1477 1478 1478 1479 1481 1486 1492 1495 1499 1503 1505 1509 1512 1514
1468 1469 1469 1470 1471 1471 1471 1471 1470 1470 1470 1470 1471 1472 1469 1466 1466 1464 1465 1465 1463 1461 1460 1457 1457 1455 1449 1445 1446 1448 1448 1448 1450 1452 1454 1457 1460 1462 1462 1463 1464 1465 1464 1463 1466 1467 1469 1471 1468 1465 1464 1462 1462 1462 1462 1459 1455 1452 1452 1455 1457 1454 1449 1442 1444 1450 1454 1463 1466 1463 1469 1477 1481 1483 1483 1484 1484 1486 1488 1491 1496 1498 1501 1505 1508 1510 1513 1515
1466 1467 1467 1468 1469 1469 1469 1469 1469 1469 1469 1468 1469 1468 1465 1464 1464 1465 1465 1462 1460 1459 1458 1456 1456 1454 1449 1446 1446 1448 1449 1447 1448 1450 1451 1454 1457 1457 1457 1459 1460 1460 1461 1461 1463 1466 1467 1466 1462 1461 1460 1459 1459 1459 1460 1460 1458 1456 1451 1452 1455 1451 1446 1441 1440 1445 1452 1461 1463 1463 1473 1482 1486 1489 1491 1492 1492 1494 1498 1500 1502 1504 1505 1509 1512 1513 1515 1517
1463 1463 1465 1466 1467 1467 1467 1467 1467 1467 1467 1466 1466 1465 1464 1464 1465 1466 1465 1461 1457 1455 1454 1452 1452 1451 1448 1447 1446 1447 1448 1445 1446 1447 1449 1451 1452 1454 1453 1455 1456 1456 1458 1458 1458 1462 1465 1462 1458 1458 1458 1458 1458 1457 1459 1459 1458 1458 1452 1452 1453 1448 1448 1447 1441 1442 1450 1458 1459 1464 1477 1485 1490 1495 1496 1499 1499 1499 1503 1507 1509 1510 1511 1514 1515 1517 1519 1520
1460 1460 1462 1463 1465 1466 1466 1466 1466 1464 1464 1465 1464 1462 1463 1464 1466 1466 1465 1460 1454 1449 1448 1448 1449 1447 1444 1445 1446 1447 1447 1444 1443 1443 1446 1448 1448 1451 1451 1450 1453 1453 1453 1453 1453 1456 1457 1455 1454 1455 1455 1456 1457 1456 1457 1459 1458 1457 1453 1451 1449 1445 1446 1445 1442 1444 1451 1459 1457 1462 1482 1491 1493 1499 1501 1502 1502 1502 1506 1510 1513 1515 1516 1517 1518 1519 1521 1523
1458 1459 1460 1461 1463 1464 1465 1465 1463 1462 1463 1463 1461 1460 1463 1464 1465 1466 1465 1461 1452 1444 1443 1443 1443 1442 1441 1444 1445 1444 1445 1442 1439 1439 1442 1444 1446 1448 1448 1448 1450 1450 1449 1450 1451 1451 1449 1449 1450 1452 1453 1453 1456 1455 1454 1457 1458 1457 1453 1449 1445 1442 1441 1441 1444 1451 1461 1468 1456 1461 1493 1502 1494 1498 1503 1502 1504 1506 1508 1512 1515 1518 1519 1520 1520 1522 1523 1525
1456 1457 1458 1460 1462 1462 1464 1463 1461 1462 1462 1461 1459 1459 1463 1464 1465 1467 1465 1461 1450 1437 1435 1437 1436 1434 1436 1440 1441 1442 1443 1439 1436 1437 1438 1442 1444 1445 1445 1445 1445 1446 1445 1446 1448 1447 1444 1443 1445 1449 1450 1451 1454 1452 1450 1453 1457 1458 1453 1447 1444 1440 1439 1441 1448 1457 1467 1470 1456 1455 1485 1501 1495 1495 1499 1500 1503 1507 1510 1513 1517 1520 1521 1521 1522 1524 1525 1526
1454 1456 1457 1459 1460 1461 1463 1461 1461 1461 1460 1460 1458 1460 1464 1463 1466 1466 1464 1462 1444 1424 1423 1428 1429 1427 1428 1433 1437 1439 1438 1435 1435 1434 1434 1439 1442 1442 1443 1441 1442 1443 1440 1442 1448 1444 1439 1441 1442 1445 1447 1449 1451 1450 1447 1449 1455 1457 1448 1445 1447 1443 1442 1443 1450 1460 1462 1463 1461 1454 1466 1487 1491 1488 1491 1496 1503 1508 1512 1515 1519 1520 1521 1523 1523 1525 1526 1527
1453 1454 1455 1457 1458 1460 1460 1460 1460 1459 1459 1460 1458 1462 1463 1463 1466 1464 1464 1458 1428 1406 1411 1419 1423 1424 1425 1431 1433 1433 1431 1430 1433 1432 1432 1437 1439 1439 1440 1436 1438 1440 1435 1439 1447 1440 1436 1439 1439 1441 1445 1446 1446 1446 1444 1446 1452 1451 1442 1443 1446 1444 1443 1440 1445 1457 1457 1463 1471 1459 1458 1480 1486 1481 1485 1493 1499 1508 1514 1517 1520 1520 1521 1523 1524 1526 1527 1527
1452 1453 1454 1456 1458 1459 1459 1459 1458 1458 1459 1460 1460 1463 1462 1464 1466 1462 1461 1445 1409 1398 1408 1413 1420 1422 1422 1427 1428 1430 1429 1427 1428 1428 1430 1436 1436 1437 1438 1434 1435 1437 1434 1435 1438 1434 1433 1436 1434 1436 1442 1442 1442 1443 1441 1443 1448 1445 1439 1442 1444 1444 1443 1440 1442 1449 1456 1471 1478 1462 1460 1478 1486 1484 1488 1493 1496 1504 1512 1517 1519 1520 1521 1523 1525 1526 1527 1527
1451 1453 1454 1456 1457 1458 1457 1457 1457 1457 1458 1460 1461 1462 1462 1465 1464 1461 1461 1435 1400 1400 1410 1410 1416 1418 1418 1422 1425 1427 1427 1423 1423 1426 1429 1433 1435 1436 1436 1435 1433 1434 1434 1433 1432 1428 1427 1432 1431 1430 1436 1437 1438 1440 1438 1440 1444 1443 1442 1443 1445 1446 1445 1444 1442 1443 1462 1480 1474 1459 1458 1471 1487 1491 1488 1488 1490 1495 1507 1515 1517 1519 1521 1523 1525 1526 1527 1528
1451 1452 1454 1455 1456 1457 1457 1457 1456 1456 1459 1460 1461 1462 1463 1464 1460 1455 1447 1421 1398 1403 1410 1410 1413 1413 1414 1417 1420 1424 1424 1421 1420 1422 1427 1429 1433 1435 1433 1433 1432 1432 1435 1434 1431 1426 1424 1430 1431 1428 1431 1434 1436 1438 1438 1438 1440 1444 1445 1443 1449 1454 1454 1455 1449 1450 1475 1485 1468 1455 1454 1465 1485 1492 1487 1484 1485 1492 1503 1511 1514 1518 1520 1522 1524 1525 1527 1528
1451 1452 1452 1454 1454 1455 1456 1456 1455 1456 1458 1460 1461 1462 1462 1461 1459 1450 1429 1409 1406 1407 1406 1409 1410 1408 1411 1414 1417 1421 1421 1419 1416 1418 1424 1425 1429 1431 1429 1428 1428 1432 1439 1435 1429 1429 1427 1426 1429 1430 1430 1432 1437 1439 1440 1439 1440 1445 1445 1446 1457 1465 1470 1474 1465 1463 1476 1476 1461 1451 1453 1470 1487 1488 1485 1486 1489 1496 1503 1508 1513 1516 1519 1521 1523 1525 1526 1528
1450 1450 1451 1452 1453 1453 1454 1455 1454 1455 1456 1459 1460 1460 1460 1458 1452 1441 1421 1407 1408 1405 1400 1405 1406 1406 1409 1412 1415 1417 1418 1417 1412 1415 1421 1423 1426 1429 1427 1424 1422 1427 1433 1431 1429 1434 1435 1427 1425 1429 1429 1431 1436 1438 1441 1442 1441 1444 1446 1449 1460 1468 1480 1488 1477 1469 1471 1466 1455 1443 1450 1481 1499 1495 1493 1493 1496 1502 1506 1511 1514 1515 1518 1521 1522 1524 1526 1527
1449 1449 1450 1450 1451 1452 1453 1454 1455 1455 1456 1458 1458 1459 1461 1456 1438 1426 1419 1408 1403 1403 1401 1399 1401 1405 1408 1410 1411 1411 1415 1415 1408 1411 1420 1421 1424 1427 1426 1423 1420 1419 1422 1427 1429 1432 1440 1436 1425 1428 1432 1433 1435 1433 1434 1438 1440 1442 1440 1443 1451 1458 1472 1483 1478 1472 1472 1466 1454 1446 1460 1488 1503 1504 1502 1500 1502 1506 1510 1513 1514 1516 1519 1521 1523 1525 1527 1528
1448 1448 1449 1449 1450 1451 1451 1453 1454 1456 1457 1458 1459 1458 1456 1448 1428 1417 1418 1412 1405 1405 1401 1394 1397 1405 1406 1407 1407 1406 1411 1412 1407 1410 1417 1419 1420 1422 1422 1420 1418 1415 1418 1428 1428 1425 1436 1435 1422 1427 1432 1431 1435 1432 1427 1434 1441 1440 1436 1440 1446 1447 1453 1464 1467 1465 1468 1471 1463 1467 1486 1496 1499 1505 1505 1503 1508 1510 1512 1514 1513 1517 1520 1521 1525 1526 1527 1530
1447 1448 1448 1448 1449 1450 1451 1453 1454 1456 1457 1458 1460 1455 1444 1434 1422 1417 1418 1417 1412 1409 1404 1396 1396 1403 1406 1405 1403 1403 1407 1407 1405 1409 1414 1415 1415 1416 1417 1416 1414 1412 1414 1421 1423 1424 1436 1433 1419 1425 1431 1428 1433 1432 1425 1431 1438 1439 1440 1439 1437 1438 1443 1456 1465 1460 1466 1479 1476 1481 1503 1507 1505 1511 1507 1506 1512 1513 1513 1515 1514 1517 1520 1522 1525 1527 1529 1530
1447 1447 1447 1447 1448 1449 1451 1453 1455 1456 1457 1458 1457 1448 1436 1428 1423 1421 1420 1419 1417 1415 1411 1404 1398 1399 1404 1404 1401 1400 1405 1405 1403 1406 1411 1412 1412 1411 1412 1413 1412 1411 1408 1412 1420 1422 1430 1430 1418 1419 1429 1427 1428 1430 1427 1426 1429 1436 1442 1435 1430 1439 1442 1449 1466 1470 1474 1484 1479 1482 1502 1508 1506 1512 1511 1508 1511 1513 1513 1514 1516 1518 1520 1522 1525 1528 1530 1531
1447 1447 1446 1445 1446 1449 1451 1453 1455 1456 1456 1457 1454 1445 1437 1432 1428 1425 1423 1421 1419 1419 1420 1414 1404 1399 1399 1400 1399 1397 1402 1405 1401 1401 1407 1411 1409 1406 1408 1410 1410 1410 1405 1408 1418 1419 1422 1429 1420 1416 1426 1427 1425 1431 1432 1425 1423 1428 1433 1430 1435 1451 1452 1451 1464 1474 1480 1484 1482 1489 1500 1498 1496 1504 1510 1509 1508 1510 1512 1514 1517 1519 1520 1523 1526 1529 1531 1532
1447 1447 1445 1443 1445 1448 1451 1453 1454 1456 1456 1454 1450 1442 1435 1431 1428 1425 1423 1422 1421 1421 1424 1420 1410 1403 1398 1395 1394 1395 1400 1402 1398 1398 1403 1409 1407 1402 1403 1407 1408 1408 1406 1406 1413 1415 1418 1427 1424 1417 1421 1424 1425 1432 1434 1429 1425 1424 1427 1430 1436 1445 1449 1450 1454 1462 1472 1477 1482 1499 1506 1496 1492 1498 1502 1504 1504 1507 1512 1515 1518 1521 1522 1524 1527 1530 1532 1533
1446 1446 1443 1443 1446 1448 1450 1453 1453 1454 1454 1449 1442 1437 1430 1426 1425 1424 1423 1424 1421 1421 1424 1423 1416 1410 1404 1395 1389 1391 1397 1398 1396 1397 1400 1403 1404 1401 1400 1403 1404 1406 1407 1407 1410 1412 1415 1424 1427 1420 1419 1425 1428 1429 1429 1428 1426 1426 1430 1434 1439 1441 1441 1444 1446 1448 1459 1468 1475 1495 1507 1500 1497 1498 1496 1499 1503 1507 1511 1515 1518 1521 1524 1526 1527 1531 1533 1533
1445 1445 1443 1444 1447 1448 1450 1452 1452 1451 1449 1444 1438 1434 1429 1426 1425 1424 1424 1423 1421 1418 1420 1422 1419 1414 1410 1405 1395 1389 1393 1396 1394 1395 1398 1399 1401 1402 1399 1399 1401 1403 1406 1407 1408 1411 1415 1422 1427 1424 1423 1427 1426 1423 1425 1426 1423 1427 1432 1432 1436 1441 1443 1452 1455 1445 1446 1456 1460 1475 1498 1504 1502 1500 1497 1497 1503 1508 1512 1515 1519 1522 1525 1527 1529 1531 1533 1534
1446 1444 1442 1444 1446 1448 1450 1450 1448 1446 1444 1439 1435 1431 1428 1427 1427 1425 1423 1420 1417 1414 1414 1415 1415 1412 1410 1409 1402 1392 1390 1394 1393 1393 1396 1396 1397 1398 1396 1396 1398 1399 1403 1406 1406 1409 1414 1420 1425 1426 1424 1424 1422 1420 1424 1426 1421 1422 1428 1428 1430 1434 1439 1451 1458 1447 1443 1448 1448 1463 1493 1508 1505 1501 1498 1498 1503 1509 1513 1515 1519 1523 1526 1529 1531 1532 1534 1535
1445 1443 1442 1444 1446 1448 1449 1446 1443 1442 1439 1435 1432 1428 1426 1426 1428 1427 1422 1417 1413 1412 1412 1412 1412 1413 1410 1407 1405 1398 1390 1390 1392 1393 1394 1393 1393 1393 1392 1394 1396 1397 1401 1405 1406 1409 1416 1422 1427 1429 1425 1421 1418 1418 1421 1425 1423 1422 1423 1426 1429 1429 1430 1437 1442 1440 1445 1451 1452 1472 1501 1511 1508 1503 1499 1500 1505 1510 1514 1516 1519 1524 1527 1530 1532 1533 1535 1536
1444 1443 1443 1445 1446 1448 1448 1444 1440 1438 1435 1432 1430 1426 1424 1425 1426 1426 1421 1416 1413 1412 1414 1414 1413 1414 1412 1407 1404 1399 1392 1391 1390 1391 1394 1394 1392 1392 1392 1392 1394 1395 1399 1403 1404 1409 1420 1425 1427 1433 1436 1433 1429 1427 1425 1425 1424 1423 1423 1425 1427 1425 1424 1430 1432 1437 1450 1451 1447 1470 1501 1510 1508 1506 1503 1504 1508 1512 1515 1518 1521 1525 1528 1530 1532 1534 1535 1536
1445 1444 1444 1445 1447 1447 1446 1442 1440 1439 1436 1433 1429 1424 1424 1427 1425 1422 1419 1416 1414 1412 1414 1416 1415 1417 1416 1411 1404 1398 1394 1392 1390 1391 1396 1394 1391 1392 1391 1392 1393 1394 1397 1402 1403 1409 1419 1424 1425 1434 1442 1444 1441 1434 1427 1424 1424 1424 1422 1423 1425 1425 1426 1431 1435 1444 1454 1449 1446 1469 1498 1510 1511 1508 1507 1509 1511 1515 1518 1520 1523 1525 1528 1530 1532 1534 1535 1536
1446 1445 1444 1446 1447 1447 1445 1442 1442 1442 1439 1437 1432 1424 1424 1428 1424 1418 1416 1416 1415 1413 1415 1415 1416 1420 1420 1414 1408 1403 1397 1392 1388 1392 1398 1395 1393 1394 1391 1391 1393 1395 1398 1403 1406 1410 1417 1421 1423 1426 1430 1433 1433 1425 1417 1419 1424 1425 1422 1422 1423 1425 1427 1429 1436 1444 1446 1448 1464 1482 1492 1505 1514 1511 1510 1511 1512 1516 1519 1521 1524 1526 1528 1531 1532 1534 1535 1535
1446 1443 1440 1443 1444 1444 1443 1440 1438 1437 1437 1440 1435 1425 1424 1427 1422 1418 1417 1417 1416 1415 1415 1415 1416 1421 1420 1413 1410 1408 1401 1393 1388 1392 1398 1396 1394 1396 1394 1392 1394 1395 1399 1403 1406 1411 1419 1423 1422 1423 1423 1424 1424 1419 1414 1415 1419 1420 1423 1425 1425 1425 1428 1430 1436 1441 1439 1449 1479 1491 1486 1497 1511 1511 1511 1513 1513 1517 1519 1521 1525 1526 1528 1531 1532 1533 1535 1535
1444 1439 1436 1437 1438 1438 1438 1436 1433 1432 1436 1439 1434 1426 1426 1427 1422 1420 1419 1417 1416 1415 1415 1416 1416 1416 1414 1409 1409 1408 1405 1401 1392 1392 1399 1398 1395 1397 1395 1392 1393 1396 1399 1403 1405 1411 1421 1425 1424 1426 1427 1425 1423 1422 1420 1417 1417 1420 1425 1428 1427 1426 1428 1431 1437 1442 1443 1453 1476 1488 1489 1496 1506 1510 1513 1514 1515 1518 1519 1522 1525 1526 1528 1530 1531 1533 1534 1536
1442 1440 1438 1437 1436 1436 1437 1436 1433 1431 1431 1434 1432 1426 1426 1426 1422 1421 1419 1418 1418 1415 1416 1418 1416 1413 1410 1406 1407 1409 1409 1410 1407 1404 1405 1403 1401 1401 1397 1393 1395 1398 1399 1403 1406 1411 1419 1425 1426 1428 1430 1427 1424 1426 1426 1423 1421 1423 1425 1427 1428 1428 1428 1430 1438 1446 1452 1461 1471 1480 1490 1499 1504 1509 1513 1515 1517 1519 1521 1523 1525 1526 1529 1530 1531 1533 1534 1536
1444 1444 1441 1439 1438 1437 1437 1438 1436 1432 1429 1431 1432 1427 1425 1424 1422 1421 1419 1420 1421 1418 1416 1417 1416 1413 1409 1405 1407 1409 1407 1412 1418 1416 1410 1408 1408 1407 1401 1396 1397 1400 1402 1404 1407 1411 1419 1426 1427 1430 1437 1436 1430 1429 1430 1430 1430 1428 1426 1428 1431 1435 1436 1439 1446 1452 1459 1470 1477 1482 1493 1503 1507 1510 1513 1516 1519 1520 1522 1524 1525 1526 1528 1529 1531 1533 1535 1537
1445 1445 1444 1443 1442 1441 1440 1439 1438 1436 1433 1432 1432 1428 1426 1425 1423 1423 1422 1420 1421 1419 1417 1417 1416 1414 1411 1408 1409 1410 1408 1411 1418 1418 1412 1410 1409 1408 1405 1401 1400 1404 1405 1406 1410 1414 1420 1428 1430 1433 1442 1441 1434 1435 1437 1435 1437 1439 1442 1445 1446 1446 1449 1453 1457 1456 1459 1473 1485 1489 1496 1504 1507 1510 1514 1518 1520 1521 1523 1524 1524 1526 1528 1529 1531 1534 1536 1538
1446 1445 1445 1446 1445 1443 1442 1441 1440 1440 1437 1433 1432 1430 1429 1427 1425 1426 1426 1422 1419 1418 1417 1416 1417 1418 1417 1413 1412 1414 1412 1411 1415 1418 1416 1412 1408 1407 1408 1406 1404 1406 1407 1408 1414 1418 1421 1432 1439 1440 1443 1445 1440 1439 1440 1441 1448 1456 1460 1460 1457 1454 1456 1460 1463 1461 1461 1471 1482 1485 1491 1500 1505 1509 1513 1517 1520 1522 1523 1524 1525 1527 1528 1530 1533 1535 1538 1540